Simultaneous Nadir Overpasses (SNOs) Predictions

Prediction of SNOs between GOES-16 and NOAA-20 Satellite Orbit:

Table of predicted SNOs for the next 14.0 days since TLE Epoch: 1/21/2023
Index Date Time (GOES-16) GOES-16 Lat,Lon NOAA-20 Lat,Lon Distance(km) Time Diff (sec)
1 01/21/2023 06:26:03 -0.04, -75.19 -0.09, -74.94 27.63 80
2 01/23/2023 18:26:35 0.04, -75.21 -0.09, -75.71 58.13 80
3 01/24/2023 18:10:31 0.04, -75.21 0.94, -71.18 459.38 80
4 01/26/2023 06:32:18 -0.04, -75.22 0.25, -76.45 139.75 80
5 01/27/2023 06:10:53 -0.04, -75.24 -0.78, -71.92 378.27 80
6 01/28/2023 18:32:50 0.04, -75.27 -0.41, -77.22 222.68 80
7 01/29/2023 18:16:45 0.03, -75.28 0.62, -72.69 295.80 80
8 01/31/2023 06:38:32 -0.03, -75.30 0.55, -77.96 302.01 80
9 02/01/2023 06:17:07 -0.02, -75.32 -0.43, -73.42 216.69 80
10 02/02/2023 18:39:03 -0.02, -75.36 -0.75, -78.72 382.61 80
11 02/03/2023 18:22:58 -0.02, -75.38 0.24, -74.18 136.29 80
